Weather History for Tin City, AK

Change the Weather History Date:

Saturday, January 19, 2013

  Actual Average Record
Temperature  
Mean Temperature -6 °F -  
Max Temperature 5 °F 6 °F 33 °F (2008)
Min Temperature -15 °F -2 °F -23 °F (2004)
Degree Days  
Heating Degree Days 71    
Moisture  
Dew Point -12 °F    
Average Humidity 87    
Maximum Humidity 92    
Minimum Humidity 77    
Precipitation  
Precipitation 0.00 in - - ()
Sea Level Pressure  
Sea Level Pressure 30.20 in    
Wind  
Wind Speed 35 mph (NNE)    
Max Wind Speed 50 mph    
Max Gust Speed 56 mph    
Visibility 1 miles    
Events Fog , Snow    
Averages and records for this station are not official NWS values.
T = Trace of Precipitation, MM = Missing Value Source: NWS Daily Summary

Daily Weather History Graph

Daily Weather History Graph

Search for Another Location

Airport:

Trip Planner

Search our weather history database for the weather conditions in past years. The results will help you decide how hot, cold, wet, or windy it might be!

Date:

Astronomy

Jan. 19, 2013 Rise Set
Actual Time 11:44 AM AKST 5:01 PM AKST
Civil Twilight 10:33 AM AKST 6:12 PM AKST
Nautical Twilight 9:26 AM AKST 7:20 PM AKST
Astronomical Twilight 8:25 AM AKST 8:20 PM AKST
Moon 12:07 PM AKST (1/19) 4:52 AM AKST (1/19)
Length of Visible Light 7h 39m
Length of Day
5h 17m
First Quarter, 58% of the Moon is Illuminated
Jan 19
First Quarter
Jan 26
Full
Feb 3
Last Quarter
Feb 9
New
Feb 17
First Quarter

Hourly Weather History & Observations

Time (AKST) Temp. Windchill Dew Point Humidity Pressure Visibility Wind Dir Wind Speed Gust Speed Precip Events Conditions
12:03 AM -7.6 °F -36.6 °F -11.2 °F 84% 30.52 in 0.5 mi NNE 31.1 mph - N/A Snow Light Snow
12:38 AM -7.6 °F -36.1 °F -11.2 °F 84% 30.51 in 0.2 mi NNE 29.9 mph - N/A Snow Light Snow
12:55 AM -8.1 °F -37.3 °F -11.6 °F 85% 30.50 in 0.5 mi NNE 31.1 mph - N/A Snow Light Snow
12:58 AM -7.6 °F -36.1 °F -11.2 °F 84% 30.51 in 0.2 mi NNE 29.9 mph - N/A Snow Light Snow
1:33 AM -9.4 °F -38.2 °F -11.2 °F 92% 30.51 in 0.5 mi NNE 28.8 mph - N/A Snow Light Snow
1:53 AM -9.4 °F -38.2 °F -11.2 °F 92% 30.50 in 0.2 mi NNE 28.8 mph - N/A Snow Light Snow
1:55 AM -8.7 °F -37.2 °F -12.1 °F 85% 30.50 in 0.2 mi NNE 28.8 mph - N/A Snow Light Snow
2:30 AM -9.4 °F -37.7 °F -11.2 °F 92% 30.50 in 0.5 mi NNE 27.6 mph - N/A Snow Light Snow
2:50 AM -9.4 °F -36.8 °F -13.0 °F 84% 30.50 in 0.2 mi NNE 25.3 mph - N/A Snow Light Snow
3:55 AM -8.9 °F -37.4 °F -12.1 °F 86% 30.47 in 0.2 mi NNE 28.8 mph - N/A Snow Light Snow
4:55 AM -10.3 °F -39.8 °F -13.7 °F 85% 30.42 in 0.2 mi NNE 29.9 mph - N/A Snow Light Snow
5:55 AM -11.7 °F -42.6 °F -15.2 °F 85% 30.39 in 0.2 mi NNE 32.2 mph - N/A Snow Light Snow
6:55 AM -12.5 °F -44.4 °F -16.2 °F 83% 30.36 in 0.2 mi NNE 34.5 mph - N/A Snow Light Snow
7:55 AM -14.3 °F -47.2 °F -18.2 °F 82% 30.33 in 0.2 mi NNE 35.7 mph - N/A Snow Light Snow
8:55 AM -14.8 °F -48.0 °F -18.6 °F 83% 30.31 in 0.2 mi NNE 35.7 mph - N/A Snow Light Snow
9:55 AM -13.0 °F -45.1 °F -16.8 °F 83% 30.29 in 0.2 mi NNE 34.5 mph - N/A Snow Light Snow
10:55 AM -14.1 °F -47.0 °F -18.2 °F 82% 30.25 in 0.2 mi NNE 35.7 mph 42.6 mph N/A Snow Light Snow
11:55 AM -15.5 °F -49.0 °F -19.3 °F 83% 30.22 in 0.2 mi NNE 35.7 mph - N/A Snow Light Snow
12:55 PM -14.3 °F -48.0 °F -17.5 °F 85% 30.19 in 0.5 mi NNE 38.0 mph 46.0 mph N/A Fog , Snow Light Snow
1:15 PM -11.2 °F -44.4 °F -14.8 °F 84% 30.17 in 0.2 mi NNE 40.3 mph 48.3 mph N/A Snow Light Snow
1:35 PM -11.2 °F -45.1 °F -16.6 °F 77% 30.15 in 0.8 mi NNE 42.6 mph - N/A Snow Light Snow
1:55 PM -12.8 °F -47.0 °F -15.9 °F 86% 30.14 in 1.2 mi NNE 41.4 mph 49.5 mph N/A Snow Light Snow
2:45 PM -13.0 °F -48.2 °F -14.8 °F 92% 30.11 in 2.0 mi NNE 44.9 mph 48.3 mph N/A Snow Light Snow
2:55 PM -12.5 °F -47.5 °F -17.1 °F 80% 30.09 in 2.5 mi NNE 44.9 mph - N/A Snow Light Snow
3:05 PM -13.0 °F -48.2 °F -16.6 °F 84% 30.08 in 1.8 mi NNE 44.9 mph 50.6 mph N/A Snow Light Snow
3:40 PM -13.0 °F -49.4 °F -16.6 °F 84% 30.06 in 3.0 mi NNE 49.5 mph 54.1 mph N/A   Scattered Clouds
3:55 PM -12.1 °F -47.9 °F -15.5 °F 85% 30.04 in 4.0 mi NNE 48.3 mph 56.4 mph N/A   Partly Cloudy
4:30 PM -13.0 °F -47.9 °F -16.6 °F 84% 30.05 in 1.2 mi NNE 43.7 mph 51.8 mph N/A Snow Light Snow
4:50 PM -13.0 °F -47.6 °F -16.6 °F 84% 30.04 in 0.8 mi NNE 42.6 mph - N/A Snow Light Snow Showers
4:55 PM -12.6 °F -47.4 °F -16.1 °F 85% 30.04 in 1.0 mi NNE 43.7 mph - N/A Snow Light Snow Showers
5:15 PM -11.2 °F -46.6 °F -13.0 °F 92% 30.01 in 1.8 mi NNE 48.3 mph - N/A   Mostly Cloudy
5:55 PM -7.8 °F -40.9 °F -10.5 °F 88% 30.01 in 1.5 mi NNE 44.9 mph 52.9 mph N/A Snow Light Snow Showers
6:20 PM -7.6 °F -40.6 °F -9.4 °F 92% 30.00 in 2.0 mi NNE 44.9 mph 54.1 mph N/A Snow Light Snow Showers
6:40 PM -5.8 °F -38.4 °F -7.6 °F 92% 29.99 in 0.8 mi NNE 46.0 mph 52.9 mph N/A Snow Light Snow Showers
6:55 PM -4.4 °F -35.2 °F -7.2 °F 87% 30.01 in 0.5 mi NNE 41.4 mph 51.8 mph N/A Snow Light Snow Showers
7:45 PM -4.0 °F -35.3 °F -5.8 °F 92% 29.97 in 1.0 mi NNE 43.7 mph - N/A Snow Light Snow
7:55 PM -3.1 °F -33.4 °F -5.4 °F 90% 29.97 in 0.8 mi NNE 41.4 mph - N/A Snow Light Snow
8:05 PM -2.2 °F -32.5 °F -4.0 °F 92% 29.96 in 0.2 mi NNE 42.6 mph 47.2 mph N/A Snow Light Snow
8:55 PM 0.1 °F -30.0 °F -2.0 °F 91% 29.94 in 0.2 mi NNE 46.0 mph - N/A Snow Heavy Snow
9:55 PM 2.3 °F -27.5 °F 0.1 °F 91% 29.90 in 0.2 mi NE 48.3 mph 56.4 mph N/A Snow Heavy Snow
10:55 PM 3.2 °F -26.0 °F 1.2 °F 91% 29.88 in 0.2 mi NNE 47.2 mph 55.2 mph N/A Snow Heavy Snow
11:55 PM 4.3 °F -23.9 °F 2.5 °F 92% 29.87 in 0.2 mi NNE 44.9 mph 51.8 mph N/A Snow Heavy Snow